LZB301 LBSF-LKPR

Flight info

Callsign LZB301
Flight time 1h 33m
Altitude 38000
Route OGOTA T228 UTEKA DCT DONIV DCT PARAK DCT LALES DCT KATQA DCT BNO DCT TUMKA DCT VLM
Aircraft A320/M-SDE3FGHIRWY/LB1

Departure

Time 2026-05-08 06:04
Airport Sofia Airport (LBSF)

Arrival

Time 2026-05-08 07:37
Airport Václav Havel Airport Prague (LKPR)
Time Latitude Longitude Altitude Speed Heading
2026-05-08 05:35 42.69041 23.40488 1747 ft 0 kts 196°
2026-05-08 05:56 42.69034 23.40485 1753 ft 4 kts 196°
2026-05-08 05:57 42.69006 23.40443 1750 ft 9 kts 275°
2026-05-08 05:57 42.69033 23.40339 1742 ft 13 kts 308°
2026-05-08 05:57 42.69121 23.40347 1751 ft 16 kts 16°
2026-05-08 05:57 42.69234 23.40390 1753 ft 18 kts 15°
2026-05-08 05:58 42.69355 23.40437 1749 ft 19 kts 15°
2026-05-08 05:58 42.69435 23.40467 1753 ft 13 kts 16°
2026-05-08 05:58 42.69516 23.40500 1749 ft 12 kts 26°
2026-05-08 05:58 42.69529 23.40604 1753 ft 15 kts 95°
2026-05-08 05:59 42.69518 23.40787 1750 ft 24 kts 95°
2026-05-08 05:59 42.69503 23.41024 1753 ft 26 kts 95°
2026-05-08 05:59 42.69488 23.41267 1753 ft 26 kts 95°
2026-05-08 05:59 42.69472 23.41516 1753 ft 27 kts 95°
2026-05-08 06:00 42.69456 23.41769 1753 ft 27 kts 95°
2026-05-08 06:00 42.69443 23.41999 1753 ft 22 kts 94°
2026-05-08 06:00 42.69432 23.42211 1753 ft 23 kts 94°
2026-05-08 06:00 42.69418 23.42431 1750 ft 24 kts 95°
2026-05-08 06:01 42.69404 23.42659 1750 ft 25 kts 94°
2026-05-08 06:01 42.69391 23.42886 1753 ft 24 kts 95°
2026-05-08 06:01 42.69377 23.43113 1748 ft 25 kts 94°
2026-05-08 06:01 42.69363 23.43346 1749 ft 25 kts 95°
2026-05-08 06:02 42.69348 23.43585 1745 ft 25 kts 95°
2026-05-08 06:02 42.69336 23.43775 1770 ft 20 kts 95°
2026-05-08 06:02 42.69356 23.43933 1783 ft 16 kts 39°
2026-05-08 06:02 42.69463 23.43957 1785 ft 14 kts
2026-05-08 06:03 42.69517 23.43946 1779 ft 4 kts 297°
2026-05-08 06:03 42.69520 23.43914 1780 ft 3 kts 273°
2026-05-08 06:03 42.69521 23.43881 1781 ft 9 kts 274°
2026-05-08 06:03 42.69544 23.43492 1753 ft 77 kts 275°
2026-05-08 06:04 42.69607 23.42479 1750 ft 136 kts 275°
2026-05-08 06:04 42.69694 23.40985 1782 ft 178 kts 274°
2026-05-08 06:04 42.69808 23.39327 2443 ft 176 kts 283°
2026-05-08 06:04 42.70384 23.37876 3109 ft 177 kts 318°
2026-05-08 06:05 42.71408 23.36955 3758 ft 179 kts 334°
2026-05-08 06:05 42.72571 23.36259 4293 ft 185 kts 339°
2026-05-08 06:05 42.73792 23.35645 4852 ft 189 kts 340°
2026-05-08 06:05 42.75042 23.35016 5328 ft 196 kts 339°
2026-05-08 06:06 42.76352 23.34409 5830 ft 202 kts 343°
2026-05-08 06:06 42.77746 23.34022 6306 ft 208 kts 352°
2026-05-08 06:06 42.79216 23.33800 6753 ft 219 kts 353°
2026-05-08 06:06 42.80799 23.33579 7127 ft 238 kts 353°
2026-05-08 06:07 42.82501 23.33332 7594 ft 254 kts 354°
2026-05-08 06:07 42.84315 23.33072 8093 ft 270 kts 353°
2026-05-08 06:07 42.86243 23.32878 8657 ft 283 kts 357°
2026-05-08 06:07 42.88237 23.32826 9392 ft 290 kts 359°
2026-05-08 06:08 42.90271 23.32834 10163 ft 295 kts 359°
2026-05-08 06:08 42.92398 23.32854 10467 ft 317 kts 359°
2026-05-08 06:08 42.94688 23.32867 10671 ft 341 kts 359°
2026-05-08 06:08 42.97127 23.32863 11009 ft 357 kts 358°
2026-05-08 06:09 42.99635 23.32850 11608 ft 364 kts 358°
2026-05-08 06:09 43.02183 23.32831 12235 ft 369 kts 358°
2026-05-08 06:09 43.04765 23.32805 12881 ft 374 kts 358°
2026-05-08 06:09 43.07377 23.32777 13544 ft 378 kts 358°
2026-05-08 06:10 43.09993 23.32717 14106 ft 383 kts 354°
2026-05-08 06:10 43.12585 23.31941 14704 ft 382 kts 336°
2026-05-08 06:10 43.14871 23.30129 15311 ft 380 kts 319°
2026-05-08 06:10 43.16899 23.27795 15954 ft 381 kts 317°
2026-05-08 06:11 43.18916 23.25433 16569 ft 383 kts 317°
2026-05-08 06:11 43.20944 23.23042 17158 ft 386 kts 317°
2026-05-08 06:11 43.22984 23.20632 17738 ft 389 kts 317°
2026-05-08 06:11 43.25041 23.18204 18322 ft 391 kts 317°
2026-05-08 06:12 43.27114 23.15761 18814 ft 394 kts 317°
2026-05-08 06:12 43.29203 23.13300 19292 ft 397 kts 317°
2026-05-08 06:12 43.31302 23.10825 19755 ft 400 kts 317°
2026-05-08 06:12 43.33425 23.08322 20224 ft 403 kts 317°
2026-05-08 06:13 43.35564 23.05804 20671 ft 406 kts 317°
2026-05-08 06:13 43.37714 23.03275 21122 ft 409 kts 317°
2026-05-08 06:13 43.39882 23.00718 21566 ft 412 kts 317°
2026-05-08 06:13 43.42060 22.98136 22010 ft 415 kts 316°
2026-05-08 06:14 43.44251 22.95533 22452 ft 417 kts 316°
2026-05-08 06:14 43.46456 22.92909 22885 ft 421 kts 316°
2026-05-08 06:14 43.48677 22.90264 23314 ft 424 kts 316°
2026-05-08 06:14 43.50914 22.87600 23706 ft 427 kts 316°
2026-05-08 06:15 43.53164 22.84919 24062 ft 429 kts 316°
2026-05-08 06:15 43.55424 22.82225 24418 ft 430 kts 316°
2026-05-08 06:15 43.57693 22.79520 24784 ft 432 kts 316°
2026-05-08 06:15 43.59973 22.76806 25157 ft 434 kts 316°
2026-05-08 06:16 43.62260 22.74083 25509 ft 435 kts 316°
2026-05-08 06:16 43.64555 22.71348 25873 ft 437 kts 316°
2026-05-08 06:16 43.66854 22.68599 26238 ft 438 kts 315°
2026-05-08 06:16 43.69148 22.65844 26635 ft 438 kts 315°
2026-05-08 06:17 43.73759 22.60305 27317 ft 440 kts 315°
2026-05-08 06:17 43.76074 22.57525 27635 ft 442 kts 315°
2026-05-08 06:17 43.78394 22.54726 27937 ft 443 kts 314°
2026-05-08 06:18 43.80653 22.51823 28231 ft 444 kts 312°
2026-05-08 06:18 43.82849 22.48803 28509 ft 445 kts 311°
2026-05-08 06:18 43.85007 22.45714 28789 ft 447 kts 310°
2026-05-08 06:18 43.87156 22.42595 29073 ft 448 kts 310°
2026-05-08 06:19 43.89317 22.39469 29396 ft 449 kts 310°
2026-05-08 06:19 43.91487 22.36371 29820 ft 448 kts 310°
2026-05-08 06:19 43.93668 22.33299 30237 ft 446 kts 311°
2026-05-08 06:19 43.95849 22.30250 30631 ft 444 kts 311°
2026-05-08 06:20 43.98022 22.27217 30993 ft 442 kts 311°
2026-05-08 06:20 44.00182 22.24193 31344 ft 441 kts 311°
2026-05-08 06:20 44.02335 22.21171 31699 ft 439 kts 310°
2026-05-08 06:20 44.04449 22.18194 32046 ft 438 kts 310°
2026-05-08 06:21 44.06587 22.15183 32394 ft 437 kts 310°
2026-05-08 06:21 44.08739 22.12145 32733 ft 436 kts 310°
2026-05-08 06:21 44.10832 22.09180 33061 ft 435 kts 310°
2026-05-08 06:21 44.12948 22.06175 33423 ft 433 kts 310°
2026-05-08 06:22 44.15054 22.03180 33772 ft 432 kts 310°
2026-05-08 06:22 44.17155 22.00194 34062 ft 432 kts 310°
2026-05-08 06:22 44.19259 21.97207 34349 ft 431 kts 310°
2026-05-08 06:22 44.21357 21.94225 34651 ft 430 kts 310°
2026-05-08 06:23 44.23445 21.91248 34947 ft 429 kts 310°
2026-05-08 06:23 44.25527 21.88276 35228 ft 428 kts 310°
2026-05-08 06:23 44.27606 21.85311 35504 ft 427 kts 310°
2026-05-08 06:23 44.29681 21.82355 35780 ft 426 kts 310°
2026-05-08 06:24 44.31744 21.79409 36022 ft 425 kts 309°
2026-05-08 06:24 44.33809 21.76452 36283 ft 424 kts 309°
2026-05-08 06:24 44.35862 21.73508 36495 ft 423 kts 309°
2026-05-08 06:24 44.37917 21.70563 36716 ft 423 kts 309°
2026-05-08 06:25 44.39967 21.67622 36964 ft 422 kts 309°
2026-05-08 06:25 44.42009 21.64686 37208 ft 421 kts 309°
2026-05-08 06:25 44.44047 21.61756 37437 ft 419 kts 309°
2026-05-08 06:25 44.46078 21.58831 37657 ft 419 kts 309°
2026-05-08 06:26 44.48104 21.55907 37861 ft 418 kts 309°
2026-05-08 06:26 44.50125 21.52983 38051 ft 418 kts 309°
2026-05-08 06:26 44.54185 21.47098 38072 ft 421 kts 309°
2026-05-08 06:27 44.58261 21.41194 38073 ft 421 kts 309°
2026-05-08 06:27 44.62330 21.35282 38058 ft 421 kts 309°
2026-05-08 06:28 44.66398 21.29354 38079 ft 421 kts 309°
2026-05-08 06:28 44.70467 21.23421 38061 ft 422 kts 308°
2026-05-08 06:29 44.74659 21.17617 38060 ft 428 kts 316°
2026-05-08 06:29 44.79833 21.13295 38061 ft 436 kts 326°
2026-05-08 06:30 44.85213 21.09327 38074 ft 437 kts 326°
2026-05-08 06:30 44.90555 21.05360 38078 ft 437 kts 326°
2026-05-08 06:31 44.95936 21.01350 38085 ft 438 kts 326°
2026-05-08 06:31 45.01319 20.97321 38095 ft 438 kts 327°
2026-05-08 06:32 45.06708 20.93291 38093 ft 438 kts 327°
2026-05-08 06:32 45.12107 20.89265 38088 ft 439 kts 327°
2026-05-08 06:33 45.17505 20.85225 38088 ft 439 kts 326°
2026-05-08 06:33 45.22897 20.81165 38098 ft 439 kts 326°
2026-05-08 06:34 45.28289 20.77092 38108 ft 439 kts 327°
2026-05-08 06:34 45.33679 20.73024 38095 ft 439 kts 327°
2026-05-08 06:35 45.39078 20.68948 38087 ft 439 kts 327°
2026-05-08 06:35 45.44472 20.64864 38084 ft 439 kts 327°
2026-05-08 06:36 45.49864 20.60766 38120 ft 439 kts 326°
2026-05-08 06:36 45.55250 20.56646 38099 ft 439 kts 326°
2026-05-08 06:37 45.60639 20.52528 38088 ft 439 kts 326°
2026-05-08 06:37 45.66031 20.48402 38085 ft 440 kts 326°
2026-05-08 06:38 45.71425 20.44272 38091 ft 440 kts 326°
2026-05-08 06:38 45.76784 20.40159 38077 ft 439 kts 326°
2026-05-08 06:39 45.82163 20.36013 38075 ft 439 kts 326°
2026-05-08 06:39 45.87542 20.31854 38083 ft 439 kts 326°
2026-05-08 06:40 45.92917 20.27688 38084 ft 440 kts 326°
2026-05-08 06:40 45.98303 20.23513 38104 ft 440 kts 326°
2026-05-08 06:41 46.03692 20.19322 38113 ft 440 kts 326°
2026-05-08 06:41 46.09084 20.15122 38104 ft 441 kts 326°
2026-05-08 06:42 46.14482 20.10914 38100 ft 441 kts 326°
2026-05-08 06:42 46.19855 20.06641 38094 ft 440 kts 324°
2026-05-08 06:43 46.25152 20.02202 38111 ft 440 kts 324°
2026-05-08 06:43 46.30435 19.97724 38094 ft 441 kts 324°
2026-05-08 06:44 46.35749 19.93262 38090 ft 442 kts 324°
2026-05-08 06:44 46.41066 19.88803 38089 ft 442 kts 324°
2026-05-08 06:45 46.46392 19.84327 38088 ft 442 kts 324°
2026-05-08 06:45 46.51713 19.79849 38098 ft 443 kts 324°
2026-05-08 06:46 46.57008 19.75382 38114 ft 443 kts 324°
2026-05-08 06:46 46.62327 19.70870 38105 ft 443 kts 324°
2026-05-08 06:47 46.67646 19.66339 38095 ft 443 kts 324°
2026-05-08 06:47 46.72968 19.61812 38093 ft 443 kts 324°
2026-05-08 06:48 46.78287 19.57284 38100 ft 443 kts 324°
2026-05-08 06:48 46.83607 19.52740 38095 ft 443 kts 324°
2026-05-08 06:49 46.88025 19.48952 38106 ft 443 kts 324°
2026-05-08 06:49 46.93331 19.44393 38096 ft 442 kts 324°
2026-05-08 06:50 46.98628 19.39836 38103 ft 442 kts 324°
2026-05-08 06:50 47.03927 19.35266 38093 ft 442 kts 324°
2026-05-08 06:51 47.09225 19.30693 38083 ft 442 kts 324°
2026-05-08 06:51 47.14521 19.26114 38106 ft 442 kts 324°
2026-05-08 06:52 47.19807 19.21529 38087 ft 442 kts 324°
2026-05-08 06:52 47.25092 19.16926 38091 ft 441 kts 324°
2026-05-08 06:53 47.30373 19.12305 38100 ft 441 kts 323°
2026-05-08 06:53 47.35656 19.07678 38099 ft 442 kts 324°
2026-05-08 06:54 47.40908 19.03088 38105 ft 442 kts 324°
2026-05-08 06:54 47.46221 18.98420 38097 ft 442 kts 323°
2026-05-08 06:55 47.51503 18.93767 38103 ft 442 kts 324°
2026-05-08 06:55 47.56752 18.89129 38089 ft 442 kts 324°
2026-05-08 06:56 47.62034 18.84448 38077 ft 443 kts 324°
2026-05-08 06:56 47.67323 18.79753 38071 ft 443 kts 324°
2026-05-08 06:57 47.72618 18.75059 38079 ft 443 kts 324°
2026-05-08 06:57 47.77911 18.70346 38091 ft 444 kts 324°
2026-05-08 06:58 47.83201 18.65614 38081 ft 444 kts 324°
2026-05-08 06:58 47.88499 18.60867 38077 ft 444 kts 324°
2026-05-08 06:59 47.93797 18.56109 38074 ft 445 kts 324°
2026-05-08 06:59 47.99097 18.51343 38084 ft 445 kts 324°
2026-05-08 07:00 48.04389 18.46563 38095 ft 445 kts 324°
2026-05-08 07:00 48.09688 18.41769 38079 ft 445 kts 323°
2026-05-08 07:01 48.14993 18.36966 38079 ft 446 kts 324°
2026-05-08 07:01 48.20265 18.32181 38077 ft 446 kts 323°
2026-05-08 07:02 48.25566 18.27344 38085 ft 446 kts 323°
2026-05-08 07:02 48.30866 18.22508 38092 ft 446 kts 324°
2026-05-08 07:03 48.36177 18.17655 38072 ft 446 kts 324°
2026-05-08 07:03 48.41475 18.12792 38072 ft 446 kts 324°
2026-05-08 07:04 48.46776 18.07917 38073 ft 446 kts 324°
2026-05-08 07:04 48.52074 18.03034 38098 ft 446 kts 324°
2026-05-08 07:05 48.57376 17.98134 38118 ft 447 kts 324°
2026-05-08 07:05 48.62672 17.93214 38110 ft 447 kts 324°
2026-05-08 07:06 48.67975 17.88284 38104 ft 448 kts 324°
2026-05-08 07:06 48.73273 17.83352 38102 ft 448 kts 324°
2026-05-08 07:07 48.78578 17.78395 38080 ft 448 kts 324°
2026-05-08 07:07 48.83804 17.73282 38111 ft 444 kts 317°
2026-05-08 07:08 48.87874 17.66435 38103 ft 433 kts 296°
2026-05-08 07:08 48.90552 17.58284 38101 ft 431 kts 293°
2026-05-08 07:09 48.93181 17.50085 38101 ft 432 kts 293°
2026-05-08 07:09 48.95783 17.41854 38103 ft 432 kts 292°
2026-05-08 07:10 48.98376 17.33606 38102 ft 432 kts 292°
2026-05-08 07:10 49.00958 17.25344 38102 ft 432 kts 292°
2026-05-08 07:11 49.03535 17.17082 38099 ft 432 kts 292°
2026-05-08 07:11 49.06117 17.08818 38099 ft 432 kts 292°
2026-05-08 07:12 49.08699 17.00540 38095 ft 432 kts 292°
2026-05-08 07:12 49.11263 16.92247 38101 ft 432 kts 292°
2026-05-08 07:13 49.13815 16.83946 38105 ft 432 kts 292°
2026-05-08 07:13 49.16348 16.75697 38105 ft 432 kts 292°
2026-05-08 07:14 49.18914 16.67334 38107 ft 432 kts 292°
2026-05-08 07:14 49.21442 16.59087 38121 ft 432 kts 292°
2026-05-08 07:15 49.23977 16.50761 38116 ft 432 kts 292°
2026-05-08 07:15 49.26501 16.42416 38110 ft 432 kts 292°
2026-05-08 07:16 49.29022 16.34061 38101 ft 432 kts 292°
2026-05-08 07:16 49.31537 16.25692 38101 ft 432 kts 292°
2026-05-08 07:17 49.34051 16.17317 38107 ft 432 kts 292°
2026-05-08 07:17 49.36561 16.08949 38104 ft 432 kts 292°
2026-05-08 07:18 49.39077 16.00570 38104 ft 433 kts 292°
2026-05-08 07:18 49.40329 15.96356 37827 ft 435 kts 292°
2026-05-08 07:18 49.41567 15.92167 37541 ft 430 kts 292°
2026-05-08 07:19 49.42805 15.87992 37010 ft 428 kts 292°
2026-05-08 07:19 49.44044 15.83825 36214 ft 430 kts 292°
2026-05-08 07:19 49.45290 15.79632 35396 ft 433 kts 292°
2026-05-08 07:19 49.46545 15.75404 34559 ft 437 kts 292°
2026-05-08 07:20 49.47802 15.71170 33955 ft 433 kts 292°
2026-05-08 07:20 49.49046 15.66966 33053 ft 434 kts 292°
2026-05-08 07:20 49.50303 15.62713 32125 ft 436 kts 293°
2026-05-08 07:20 49.51554 15.58467 31212 ft 437 kts 293°
2026-05-08 07:21 49.52807 15.54206 30316 ft 438 kts 293°
2026-05-08 07:21 49.54057 15.49933 29263 ft 438 kts 293°
2026-05-08 07:21 49.55293 15.45695 28069 ft 442 kts 293°
2026-05-08 07:21 49.56560 15.41353 26772 ft 447 kts 293°
2026-05-08 07:22 49.57839 15.36982 25983 ft 443 kts 293°
2026-05-08 07:22 49.59097 15.32689 25231 ft 438 kts 293°
2026-05-08 07:22 49.60339 15.28440 24531 ft 432 kts 293°
2026-05-08 07:22 49.61563 15.24236 23835 ft 427 kts 293°
2026-05-08 07:23 49.62771 15.20071 23105 ft 423 kts 293°
2026-05-08 07:23 49.63960 15.15959 22452 ft 417 kts 293°
2026-05-08 07:23 49.65130 15.11901 21818 ft 411 kts 292°
2026-05-08 07:23 49.66285 15.07891 21246 ft 406 kts 292°
2026-05-08 07:24 49.67422 15.03939 20667 ft 401 kts 292°
2026-05-08 07:24 49.68545 15.00033 20120 ft 395 kts 293°
2026-05-08 07:24 49.69651 14.96182 19599 ft 390 kts 293°
2026-05-08 07:24 49.70745 14.92371 19090 ft 385 kts 293°
2026-05-08 07:25 49.71820 14.88614 18595 ft 380 kts 292°
2026-05-08 07:25 49.72883 14.84893 18077 ft 376 kts 292°
2026-05-08 07:25 49.74964 14.77597 17021 ft 368 kts 293°
2026-05-08 07:26 49.76006 14.73947 16005 ft 377 kts 293°
2026-05-08 07:26 49.77075 14.70194 15200 ft 381 kts 293°
2026-05-08 07:26 49.78136 14.66463 14674 ft 377 kts 293°
2026-05-08 07:26 49.79182 14.62776 14230 ft 370 kts 293°
2026-05-08 07:27 49.80198 14.59173 14081 ft 362 kts 293°
2026-05-08 07:27 49.81180 14.55684 13671 ft 356 kts 293°
2026-05-08 07:27 49.82175 14.52148 12936 ft 351 kts 293°
2026-05-08 07:27 49.83133 14.48746 12131 ft 348 kts 293°
2026-05-08 07:28 49.84096 14.45324 11338 ft 345 kts 293°
2026-05-08 07:28 49.85045 14.41940 10669 ft 338 kts 293°
2026-05-08 07:28 49.85953 14.38702 10541 ft 317 kts 293°
2026-05-08 07:28 49.86806 14.35662 10416 ft 298 kts 293°
2026-05-08 07:29 49.87611 14.32793 10255 ft 284 kts 293°
2026-05-08 07:29 49.88384 14.30023 9879 ft 278 kts 293°
2026-05-08 07:29 49.89146 14.27281 9377 ft 276 kts 292°
2026-05-08 07:29 49.89900 14.24561 8858 ft 274 kts 292°
2026-05-08 07:30 49.90651 14.21861 8333 ft 272 kts 293°
2026-05-08 07:30 49.91398 14.19178 7816 ft 270 kts 293°
2026-05-08 07:30 49.92139 14.16511 7290 ft 269 kts 292°
2026-05-08 07:30 49.92874 14.13850 6836 ft 267 kts 292°
2026-05-08 07:31 49.93603 14.11208 6369 ft 266 kts 292°
2026-05-08 07:31 49.94330 14.08577 5868 ft 264 kts 292°
2026-05-08 07:31 49.95051 14.05972 5413 ft 260 kts 292°
2026-05-08 07:31 49.95819 14.03495 5277 ft 249 kts 300°
2026-05-08 07:32 49.96673 14.01223 5140 ft 239 kts 299°
2026-05-08 07:32 49.97578 13.99125 4973 ft 231 kts 314°
2026-05-08 07:32 49.98900 13.97763 4682 ft 230 kts 340°
2026-05-08 07:32 50.00471 13.97460 4348 ft 229 kts
2026-05-08 07:33 50.02000 13.98105 4040 ft 228 kts 28°
2026-05-08 07:33 50.03168 13.99667 3976 ft 217 kts 53°
2026-05-08 07:33 50.03850 14.01673 3980 ft 203 kts 63°
2026-05-08 07:33 50.04441 14.03611 3882 ft 194 kts 63°
2026-05-08 07:34 50.05004 14.05468 3643 ft 187 kts 63°
2026-05-08 07:34 50.05550 14.07272 3438 ft 181 kts 63°
2026-05-08 07:34 50.06081 14.09027 3183 ft 177 kts 64°
2026-05-08 07:34 50.06597 14.10731 2947 ft 172 kts 63°
2026-05-08 07:35 50.07090 14.12368 2723 ft 162 kts 63°
2026-05-08 07:35 50.07554 14.13905 2513 ft 152 kts 64°
2026-05-08 07:35 50.07997 14.15371 2300 ft 148 kts 64°
2026-05-08 07:35 50.08430 14.16813 2074 ft 147 kts 64°
2026-05-08 07:36 50.08861 14.18237 1839 ft 146 kts 64°
2026-05-08 07:36 50.09294 14.19659 1636 ft 144 kts 64°
2026-05-08 07:36 50.09711 14.21072 1451 ft 144 kts 63°
2026-05-08 07:36 50.10143 14.22493 1269 ft 147 kts 64°
2026-05-08 07:37 50.10566 14.23897 1182 ft 130 kts 65°
2026-05-08 07:37 50.10870 14.24917 1168 ft 79 kts 65°
2026-05-08 07:37 50.10995 14.25331 1174 ft 54 kts 64°
2026-05-08 07:37 50.11117 14.25748 1168 ft 27 kts 70°
2026-05-08 07:38 50.11117 14.25990 1168 ft 17 kts 98°
2026-05-08 07:38 50.11106 14.26114 1167 ft 0 kts 98°
2026-05-08 07:39 50.11105 14.26119 1170 ft 4 kts 98°
2026-05-08 07:39 50.11095 14.26223 1167 ft 12 kts 99°
2026-05-08 07:39 50.11064 14.26276 1171 ft 5 kts 190°
2026-05-08 07:39 50.11019 14.26232 1170 ft 10 kts 213°
2026-05-08 07:40 50.10944 14.26151 1173 ft 16 kts 216°
2026-05-08 07:40 50.10872 14.26107 1173 ft 9 kts 142°
2026-05-08 07:40 50.10833 14.26197 1175 ft 9 kts 123°
2026-05-08 07:40 50.10783 14.26231 1176 ft 11 kts 199°
2026-05-08 07:41 50.10697 14.26140 1174 ft 19 kts 215°
2026-05-08 07:41 50.10591 14.26079 1174 ft 13 kts 149°
2026-05-08 07:41 50.10538 14.26210 1176 ft 12 kts 106°
2026-05-08 07:41 50.10504 14.26317 1175 ft 10 kts 124°
2026-05-08 07:42 50.10466 14.26402 1177 ft 9 kts 124°
2026-05-08 07:42 50.10434 14.26475 1173 ft 6 kts 123°
2026-05-08 07:42 50.10451 14.26520 1173 ft 7 kts 34°
2026-05-08 07:42 50.10457 14.26526 1174 ft 0 kts 34°